User: anonymous   Login
Location: Unspecified
(0.0000°N, 0.0000°E)
Time: 14:46:56
(UTC+00:00)
Language:

Tansei-3 - Orbit

View from above orbital plane
View from above orbital plane
View from above satellite
View from above satellite

Ground track
Ground track

The orbit data is extracted from the following two-line orbital elements,

1  9841U 77012A   17202.75934153 -.00000070 +00000-0 -10487-3 0  9990
2  9841 065.7638 332.3654 1722185 102.3878 277.4370 10.73811269584476
Epoch (UTC): 21 July 2017 18:13:27
Eccentricity: 0.1722185
inclination: 65.7638°
perigee height: 806 km
apogee height: 3795 km
right ascension of ascending node: 332.3654°
argument of perigee: 102.3878°
revolutions per day: 10.73811269
mean anomaly at epoch: 277.4370°
orbit number at epoch: 58447

The dashed part of the orbit path shows where the satellite is in the earth's shadow,  

DLR